Location: Riverside Cemetery
(38.3047°N, 99.7773°W)
Time: 11:00:16
(UTC+00:00)

Meteor 2-5 Rocket - Pass Details

Date: 19 September 2020
Orbit: 833 x 912 km, 81.2° (Epoch: 25 October)

Event Time Altitude Azimuth Distance (km) Brightness Sun altitude
Rises 03:13:29 0° 351° (N) 3,420 7.4 -29.4°
Reaches altitude 10° 03:15:54 10° 351° (N) 2,490 6.6 -29.9°
Enters shadow 03:20:24 59° 353° (N) 994 4.1 -30.6°
